Hourly Weather Mateikove

Today, 16 June, Wednesday

Time Temperature Precipitation Wind Pressure Humidity
00:00 +15°C° 0.2 mm 4 mps 731 mmHg 94%
01:00 +15°C° 0.2 mm 5 mps 732 mmHg 94%
02:00 +14°C° 0 mm 5 mps 731 mmHg 94%
03:00 +14°C° 0.1 mm 5 mps 731 mmHg 94%
04:00 +14°C° 0.1 mm 5 mps 731 mmHg 94%
05:00 +14°C° 0.1 mm 5 mps 731 mmHg 94%
06:00 +15°C° 0.1 mm 5 mps 732 mmHg 91%
07:00 +17°C° 0.1 mm 6 mps 732 mmHg 87%
08:00 +19°C° 0 mm 6 mps 732 mmHg 84%
09:00 +20°C° 0.2 mm 6 mps 732 mmHg 80%
10:00 +21°C° 0.2 mm 6 mps 733 mmHg 77%
11:00 +22°C° 0.2 mm 6 mps 733 mmHg 73%
12:00 +22°C° 0.6 mm 6 mps 733 mmHg 72%
13:00 +22°C° 0.6 mm 6 mps 733 mmHg 72%
14:00 +23°C° 0 mm 6 mps 733 mmHg 71%
15:00 +22°C° 0.3 mm 6 mps 733 mmHg 73%
16:00 +22°C° 0.3 mm 5 mps 733 mmHg 74%
17:00 +22°C° 0.3 mm 5 mps 733 mmHg 75%
18:00 +21°C° 0.1 mm 5 mps 733 mmHg 79%
19:00 +19°C° 0.1 mm 4 mps 733 mmHg 83%
20:00 +18°C° 0.1 mm 4 mps 733 mmHg 87%
21:00 +17°C° 0 mm 4 mps 734 mmHg 89%
22:00 +16°C° 0 mm 3 mps 734 mmHg 91%
23:00 +16°C° 0 mm 3 mps 734 mmHg 93%

Tomorrow, 17 June, Thursday

Time Temperature Precipitation Wind Pressure Humidity
00:00 +14°C° 0 mm 3 mps 734 mmHg 94%
01:00 +14°C° 0 mm 3 mps 734 mmHg 94%
02:00 +14°C° 0 mm 3 mps 734 mmHg 95%
03:00 +14°C° 0.1 mm 4 mps 734 mmHg 95%
04:00 +14°C° 0.1 mm 4 mps 734 mmHg 95%
05:00 +14°C° 0.1 mm 4 mps 734 mmHg 96%
06:00 +17°C° 0.2 mm 4 mps 735 mmHg 92%
07:00 +17°C° 0.2 mm 5 mps 735 mmHg 89%
08:00 +19°C° 0.2 mm 5 mps 736 mmHg 86%
09:00 +21°C° 0.3 mm 5 mps 736 mmHg 81%
10:00 +22°C° 0.3 mm 6 mps 736 mmHg 77%
11:00 +23°C° 0.3 mm 6 mps 736 mmHg 72%
12:00 +23°C° 0.4 mm 6 mps 736 mmHg 71%
13:00 +23°C° 0.4 mm 6 mps 736 mmHg 71%
14:00 +24°C° 0.4 mm 6 mps 736 mmHg 70%
15:00 +24°C° 0.1 mm 6 mps 736 mmHg 72%
16:00 +23°C° 0.1 mm 5 mps 736 mmHg 74%
17:00 +23°C° 0.1 mm 5 mps 736 mmHg 76%
18:00 +22°C° 0 mm 4 mps 736 mmHg 80%
19:00 +21°C° 0 mm 4 mps 737 mmHg 84%
20:00 +19°C° 0 mm 3 mps 737 mmHg 89%
21:00 +19°C° 0 mm 3 mps 737 mmHg 90%
22:00 +18°C° 0 mm 3 mps 737 mmHg 92%
23:00 +17°C° 0 mm 4 mps 737 mmHg 94%

Day after tomorrow, 18 June, Friday

Time Temperature Precipitation Wind Pressure Humidity
00:00 +17°C° 0 mm 4 mps 737 mmHg 95%
01:00 +17°C° 0 mm 4 mps 737 mmHg 96%
02:00 +17°C° 0 mm 4 mps 737 mmHg 97%
03:00 +15°C° 0 mm 4 mps 737 mmHg 97%
04:00 +15°C° 0 mm 4 mps 737 mmHg 97%
05:00 +15°C° 0 mm 4 mps 737 mmHg 97%
06:00 +16°C° 0 mm 5 mps 737 mmHg 92%
07:00 +19°C° 0 mm 5 mps 737 mmHg 88%
08:00 +20°C° 0 mm 6 mps 737 mmHg 83%
09:00 +21°C° 0 mm 6 mps 737 mmHg 80%
10:00 +23°C° 0 mm 7 mps 737 mmHg 76%
11:00 +24°C° 0 mm 7 mps 737 mmHg 73%
12:00 +24°C° 0 mm 7 mps 737 mmHg 72%
13:00 +24°C° 0 mm 7 mps 737 mmHg 72%
14:00 +24°C° 0 mm 7 mps 737 mmHg 71%
15:00 +24°C° 0.1 mm 7 mps 737 mmHg 74%
16:00 +23°C° 0.1 mm 7 mps 736 mmHg 77%
17:00 +23°C° 0.1 mm 6 mps 736 mmHg 80%
18:00 +22°C° 0 mm 6 mps 736 mmHg 82%
19:00 +21°C° 0 mm 6 mps 736 mmHg 84%
20:00 +20°C° 0 mm 5 mps 737 mmHg 86%
21:00 +19°C° 0 mm 5 mps 737 mmHg 89%
22:00 +19°C° 0 mm 4 mps 737 mmHg 92%
23:00 +18°C° 0 mm 4 mps 737 mmHg 94%

19 June, Saturday

Time Temperature Precipitation Wind Pressure Humidity
00:00 +18°C° 0 mm 4 mps 737 mmHg 95%
01:00 +17°C° 0 mm 4 mps 737 mmHg 96%
02:00 +17°C° 0 mm 3 mps 737 mmHg 98%
03:00 +17°C° 0 mm 3 mps 737 mmHg 98%
04:00 +16°C° 0 mm 3 mps 737 mmHg 98%
05:00 +16°C° 0 mm 3 mps 737 mmHg 98%
06:00 +18°C° 0 mm 3 mps 737 mmHg 93%
07:00 +19°C° 0 mm 4 mps 737 mmHg 89%
08:00 +20°C° 0 mm 4 mps 737 mmHg 84%
09:00 +21°C° 0.7 mm 4 mps 737 mmHg 82%
10:00 +21°C° 0.7 mm 5 mps 737 mmHg 81%
11:00 +22°C° 0.7 mm 5 mps 737 mmHg 79%
12:00 +22°C° 0.8 mm 5 mps 737 mmHg 79%
13:00 +22°C° 0.8 mm 4 mps 736 mmHg 80%
14:00 +22°C° 0.8 mm 4 mps 736 mmHg 80%
15:00 +22°C° 0.6 mm 4 mps 736 mmHg 80%
16:00 +22°C° 0.6 mm 4 mps 736 mmHg 80%
17:00 +22°C° 0.6 mm 4 mps 736 mmHg 81%
18:00 +21°C° 0.5 mm 3 mps 736 mmHg 84%
19:00 +20°C° 0.5 mm 3 mps 736 mmHg 87%
20:00 +19°C° 0.5 mm 2 mps 736 mmHg 91%
21:00 +18°C° 0 mm 2 mps 736 mmHg 92%
22:00 +18°C° 0 mm 2 mps 736 mmHg 92%
23:00 +17°C° 0 mm 2 mps 736 mmHg 93%

20 June, Sunday

Time Temperature Precipitation Wind Pressure Humidity
00:00 +17°C° 0 mm 2 mps 736 mmHg 93%
01:00 +17°C° 0 mm 2 mps 735 mmHg 93%
02:00 +16°C° 0 mm 2 mps 735 mmHg 93%
03:00 +16°C° 0 mm 2 mps 735 mmHg 94%
04:00 +17°C° 0 mm 2 mps 735 mmHg 94%
05:00 +17°C° 0 mm 2 mps 735 mmHg 94%
06:00 +18°C° 0 mm 3 mps 735 mmHg 91%
07:00 +20°C° 0 mm 3 mps 735 mmHg 88%
08:00 +21°C° 0 mm 3 mps 735 mmHg 86%
09:00 +22°C° 0 mm 4 mps 735 mmHg 80%
10:00 +23°C° 0 mm 4 mps 735 mmHg 74%
11:00 +25°C° 0 mm 4 mps 735 mmHg 69%
12:00 +26°C° 0 mm 4 mps 735 mmHg 67%
13:00 +26°C° 0 mm 5 mps 735 mmHg 66%
14:00 +26°C° 0 mm 5 mps 734 mmHg 64%
15:00 +25°C° 0 mm 5 mps 734 mmHg 69%
16:00 +25°C° 0 mm 4 mps 734 mmHg 73%
17:00 +23°C° 0 mm 4 mps 734 mmHg 77%
18:00 +22°C° 0 mm 4 mps 734 mmHg 81%
19:00 +21°C° 0 mm 3 mps 734 mmHg 85%
20:00 +20°C° 0 mm 3 mps 734 mmHg 89%
21:00 +19°C° 0 mm 3 mps 733 mmHg 91%
22:00 +18°C° 0 mm 3 mps 733 mmHg 93%
23:00 +18°C° 0 mm 3 mps 733 mmHg 94%

21 June, Monday

Time Temperature Precipitation Wind Pressure Humidity
00:00 +18°C° 0 mm 3 mps 733 mmHg 95%
01:00 +17°C° 0 mm 3 mps 733 mmHg 95%
02:00 +17°C° 0 mm 3 mps 733 mmHg 96%
03:00 +17°C° 0 mm 3 mps 732 mmHg 96%
04:00 +17°C° 0 mm 3 mps 732 mmHg 96%
05:00 +17°C° 0 mm 3 mps 732 mmHg 97%
06:00 +19°C° 0 mm 3 mps 732 mmHg 92%
07:00 +20°C° 0 mm 3 mps 733 mmHg 88%
08:00 +22°C° 0 mm 3 mps 733 mmHg 83%
09:00 +24°C° 0.1 mm 3 mps 733 mmHg 79%
10:00 +25°C° 0.1 mm 3 mps 732 mmHg 76%
11:00 +26°C° 0.1 mm 3 mps 732 mmHg 72%
12:00 +26°C° 0.1 mm 3 mps 732 mmHg 70%
13:00 +27°C° 0.1 mm 3 mps 732 mmHg 68%
14:00 +27°C° 0.1 mm 3 mps 732 mmHg 67%
15:00 +27°C° 0.1 mm 3 mps 732 mmHg 69%
16:00 +27°C° 0.1 mm 3 mps 731 mmHg 71%
17:00 +26°C° 0.1 mm 3 mps 731 mmHg 73%
18:00 +25°C° 0.1 mm 2 mps 731 mmHg 79%
19:00 +24°C° 0.1 mm 2 mps 731 mmHg 84%
20:00 +23°C° 0.1 mm 2 mps 731 mmHg 90%
21:00 +21°C° 0 mm 2 mps 731 mmHg 91%
22:00 +20°C° 0 mm 2 mps 731 mmHg 92%
23:00 +20°C° 0 mm 2 mps 731 mmHg 94%
Show more